www.pogodaiklimat.ru

Погода и климат >> Архив погоды >> Россия >> Камчатский край >> Остров Беринга


АРХИВ ПОГОДЫ на Острове Беринга

Время (UTC), дата Ветер
(напр.,м/с)
 
Видим.   Явления Облачность Т
(С)
Тd
(С)
f
(%)
Тe
(С)
Тes
(С)
Комфортность P
(гПа)
Po
(гПа)
Тmin
(С)
Tmax
(С)
R
(мм)
R24
(мм)
S
(см)
06 9.01 ЮЗ 7 20 км {ливн. осадки} 6/6 600 м
[Sc diur, vesp]
+0.1 -1.3 90 -7 -7 981.6 979.4
09 9.01 ЮЗ 7 20 км 8/8 600 м
[Sc]
+0.4 -1.5 87 -7 -7 983.0 980.8 +0.5 0.0
12 9.01 Ю 8-10
{12}
20 км {ливн. осадки} 9/9 600 м
[Cb cap]
+0.6 -0.9 90 -7 -7 984.6 982.4
15 9.01 ЮЗ 8-10
{12}
20 км {ливн. осадки} 8/8 600 м
[Cb cap]
+0.3 -0.5 94 -7 -7 986.5 984.3
18 9.01 Ю 13-15
{15}
20 км {ливн. осадки} 8/8 600 м
[Sc]
-0.1 -1.9 88 -9 -9 988.2 986.0
21 9.01 Ю 10-13
{15}
10 км слаб. ливневой снег 9/9 600 м
[Cb cap]
-0.1 -2.7 83 -8 -8 990.3 988.1 -0.4 0.1 25
00 10.01 Ю 11-14
{17}
4000 м метель {ливн. осадки} 9/9 600 м
[Cb cap]
-0.9 -3.4 83 -10 -10 992.0 989.8 -1.7
03 10.01 Ю 9-13
{15}
20 км {метель} 9/9 600 м
[Cu Sc]
-1.3 -4.4 79 -9 -9 992.7 990.5
06 10.01 В 4
{15}
20 км {ливн. осадки, метель} 6/6 600 м
[Cb cap]
-2.9 -6.1 79 -9 -9 994.2 992.0
09 10.01 В 4 20 км 4/4 600 м
[Sc]
-4.2 -9.6 66 -10 -10 995.5 993.2 -0.1 0.1
12 10.01 СВ 3 20 км 3/3 600 м
[Cu hum]
-5.0 -10.7 64 -10 -10 995.6 993.3
15 10.01 СВ 3 4000 м сильн. ливневой дождь 10/10 600 м
[Cb cap]
-4.2 -5.4 91 -10 -10 994.7 992.5
18 10.01 СВ 4
{12}
4000 м слаб. ливневой снег 10/10 300 м
[Cb cap]
-0.8 -0.9 99 -7 -7 992.9 990.7
21 10.01 СВ 10-13
{17}
10 км слаб. ливневой снег 10/10 300 м
[Cb cap]
-0.4 -1.1 95 -9 -9 991.8 989.6 -5.9 1 27
00 11.01 СВ 13-21
{21}
4000 м слаб. крупа 10/10 300 м
[Cb cap]
-1.0 -1.4 97 -11 -11 990.6 988.4
03 11.01 СВ 10-15
{21}
20 км {ливн. осадки} 10/10 600 м
[Sc]
+0.4 -2.2 83 -8 -8 989.8 987.6
06 11.01 СВ 10-15
{18}
20 км {ливн. осадки} 10/10 600 м
[Sc]
+0.4 -1.7 86 -8 -8 989.3 987.1
09 11.01 СВ 11-15
{18}
20 км 10/10 600 м
[Sc]
+0.6 -1.8 84 -8 -8 987.9 985.7 +0.8 0.3
12 11.01 СВ 13-19
{19}
10 км слаб. ливневой дождь 10/10 300 м
[Cb cap]
+1.7 +0.3 90 -7 -7 986.2 984.0
15 11.01 СВ 14-24
{24}
20 км {ливн. осадки} 10/10 600 м
[Sc]
+1.8 0.0 88 -7 -7 986.1 983.9
18 11.01 СВ 15-24
{26}
20 км 10/10 600 м
[Sc]
+0.5 0.0 96 -9 -9 987.0 984.8
21 11.01 СВ 14-24
{26}
4000 м слаб. ливневой снег 10/10 300 м
[Cb cap]
+0.4 -0.3 95 -9 -9 988.5 986.3 +0.4 1 25
00 12.01 СВ 14-22
{25}
4000 м слаб. ливневой снег 10/10 300 м
[Cb cap]
+0.2 -0.1 98 -9 -9 988.8 986.6 -0.1
03 12.01 СВ 18-27
{29}
4000 м слаб. ливневой снег 10/10 300 м
[Cb cap]
+0.3 -0.3 96 -10 -10 989.2 987.0
06 12.01 СВ 16-26
{29}
4000 м слаб. ливневой снег 10/10 300 м
[Cb cap]
-0.2 -0.7 96 -10 -10 991.3 989.1
09 12.01 СВ 14-23
{28}
4000 м слаб. ливневой снег 10/10 300 м
[Cb cap]
-0.6 -1.0 97 -10 -10 994.0 991.8 +0.4 0.9
12 12.01 СВ 14-23
{27}
20 км {ливн. осадки} 10/10 600 м
[Sc]
-0.2 -2.9 82 -10 -10 997.0 994.8
15 12.01 СВ 15-23
{25}
20 км 10/10 600 м
[Sc]
-0.9 -4.7 75 -11 -11 998.6 996.4
18 12.01 СВ 15-23
{26}
20 км 10/10 600 м
[Sc]
-1.2 -5.0 75 -11 -11 1000.3 998.0
21 12.01 СВ 14-20
{23}
20 км 10/10 600 м
[Sc]
-1.7 -5.0 78 -11 -11 1001.8 999.6 -1.9 0.1 22
00 13.01 СВ 15-20
{22}
20 км {ливн. осадки} 8/8 600 м
[Cb cap]
-2.4 -5.2 81 -13 -13 1002.7 1000.4 -3.4
03 13.01 СВ 9-15
{21}
20 км {ливн. осадки} 9/9 600 м
[Cb cap]
-3.4 -4.8 90 -12 -12 1003.5 1001.2
06 13.01 СВ 12-17
{19}
20 км {ливн. осадки} 9/9 600 м
[Sc]
-3.7 -7.0 78 -14 -14 1004.8 1002.5
09 13.01 СВ 11-14
{19}
20 км 8/8 600 м
[Sc]
-4.0 -8.5 71 -13 -13 1005.9 1003.7 -1.6 0.1
12 13.01 С 12-15
{18}
20 км {ливн. осадки} 8/8 600 м
[Cb cap]
-5.0 -8.2 78 -15 -15 1006.5 1004.2
15 13.01 С 10-13
{17}
20 км 6/6 600 м
[Sc]
-4.6 -9.4 69 -14 -14 1006.8 1004.5
18 13.01 СВ 9-11
{14}
20 км 10/10 600 м
[Sc]
-4.6 -9.9 66 -13 -13 1007.2 1004.9
21 13.01 СВ 6
{14}
20 км 10/10 600 м
[Sc]
-4.5 -9.6 68 -12 -12 1007.8 1005.5 -5.6 0.0 22
00 14.01 С 5
{11}
20 км {ливн. осадки} 8/8 600 м
[Cb cap]
-4.7 -7.5 81 -12 -12 1007.8 1005.5
03 14.01 С 6-10
{11}
20 км позёмок {ливн. осадки} 9/9 600 м
[Cb cap]
-4.1 -6.7 82 -12 -12 1007.2 1004.9
06 14.01 С 7
{13}
20 км позёмок {ливн. осадки} 8/8 600 м
[Cu Sc]
-4.2 -7.5 78 -12 -12 1007.8 1005.5
09 14.01 СЗ 8-11
{12}
10 км слаб. ливневой снег {метель} 10/10 300 м
[Cb cap]
-4.2 -9.4 67 -13 -13 1008.2 1006.0 -3.7 0.9
12 14.01 С 6
{12}
10 км слаб. ливневой снег {метель} 10/10 300 м
[Cb cap]
-4.7 -7.5 81 -12 -12 1008.7 1006.4
15 14.01 С 5
{11}
20 км позёмок {ливн. осадки} 10/10 600 м
[Cb cap]
-4.8 -9.3 71 -12 -12 1008.6 1006.3
18 14.01 СЗ 7-10
{11}
20 км позёмок {ливн. осадки} 10/10 600 м
[Sc]
-4.6 -8.6 74 -13 -13 1008.9 1006.7
21 14.01 СЗ 6
{11}
10 км слаб. ливневой снег {метель} 10/10 600 м
[Cb cap]
-4.7 -9.9 67 -12 -12 1009.7 1007.4 -5.2 0.5 24
00 15.01 С 7 10 км слаб. ливневой снег {метель} 10/10 300 м
[Cb cap]
-5.0 -7.4 83 -13 -13 1010.0 1007.7 -5.6
03 15.01 С 6
{10}
20 км {ливн. осадки, метель} 9/9 600 м
[Sc]
-5.0 -8.6 76 -13 -13 1009.9 1007.6
06 15.01 С 7
{10}
20 км {ливн. осадки} 10/10 600 м
[Sc]
-5.1 -9.1 73 -13 -13 1010.8 1008.5
09 15.01 С 7-10
{10}
20 км 10/10 600 м
[Sc]
-5.4 -7.8 83 -14 -14 1011.8 1009.5 -4.8 0.4
12 15.01 С 7-10
{10}
20 км 10/10 600 м
[Sc]
-5.4 -7.8 83 -14 -14 1011.8 1009.5 -4.8 0.4
15 15.01 С 7
{12}
20 км 10/10 600 м
[Sc]
-5.8 -9.8 73 -14 -14 1013.0 1010.7
18 15.01 С 7
{10}
20 км 10/10 600 м
[Sc]
-5.8 -11.1 66 -14 -14 1013.6 1011.3
21 15.01 С 6 20 км 10/10 600 м
[Sc]
-6.3 -10.8 70 -14 -14 1015.6 1013.3 -6.9 24
00 16.01 С 3 20 км 9/9 600 м
[Sc]
-6.0 -9.6 76 -11 -11 1016.4 1014.1

 

Местоположение метеостанции Остров Беринга (Камчатский край, Россия): широта 55.20 долгота 165.90 высота над уровнем моря 18 м.

В архиве по умолчанию представлена погода на Острове Беринга за последнюю неделю. Архивные данные за месяц целиком и за предыдущие месяцы, начиная с января 2011 года, Вы можете получить, выбрав интересующий диапазон дат из раскрывающегося списка и нажав кнопку "Ввод!".


*Определитесь, кто Вы:
робот инопланетянин человек

Внимание! Время в таблицах - всемирное. Для получения местного времени необходимо прибавить поправку, которая равна 12 ч.

Смотрите также архив погоды в соседних городах и на ближайших метеорологических станциях:

Погода на Мысе Африка (Камчатский край, Россия) (196 км)
Погода в Усть-Камчатске (Камчатский край, Россия) (230 км)
Погода на Мысе Озерном (Камчатский край, Россия) (319 км)
Погода в Ключах (Камчатский край, Россия) (343 км)
Погода в Козыревске (Камчатский край, Россия) (394 км)
Погода в Семячике (Камчатский край, Россия) (404 км)
Погода в Долиновке (Камчатский край, Россия) (438 км)
Погода в Эссо (Камчатский край, Россия) (460 км)
Погода в Мильково (Камчатский край, Россия) (476 км)
Погода в Оссоре (Камчатский край, Россия) (481 км)

Пояснения к столбцам:

Ветер - указаны скорость ветра в м/с - средняя за 10 мин, порывы в срок и между сроками (в фигурных скобках) и направление, откуда дует ветер: С - северный, СВ - северо-восточный, В - восточный, ЮВ - юго-восточный, Ю - южный, ЮЗ - юго-западный, З - западный, СЗ - северо-западный.
Видимость - горизонтальная дальность видимости в метрах или километрах. При видимости от 1 до 10 км при отсутствии осадков обычно наблюдается дымка, при ухудшении видимости до 1 км и менее - туман. В сухую погоду видимость может ухудшаться дымом, пылью или мглою.
Явления - указаны атмосферные явления, наблюдавшиеся в срок или в последний час перед сроком; фигурными скобками обозначены явления, наблюдавшиеся между сроками (за 1-3 часа до срока); квадратными скобками обозначены град или гололедные отложения с указанием их диаметра в мм.
Облачность - указаны через наклонную черту общая и нижняя облачность в баллах и высота нижней границы облаков в метрах; квадратными скобками обозначены формы облаков: Ci - перистые, Cs - перисто-слоистые, Cc - перисто-кучевые, Ac - высококучевые, As - высокослоистые, Sc - слоисто-кучевые, Ns - слоисто-дождевые, Cu - кучевые, Cb - кучево-дождевые. Подробнее классификацию облаков см. в Атласе облаков (PDF).
T - Температура воздуха - температура, измеренная на высоте 2 м над землей.
Td - Температура точки росы - температура, при понижении до которой содержащийся в воздухе водяной пар достигнет насыщения.
f - Относительная влажность воздуха - влажноcть воздуха, измеренная на высоте 2 м над землей.
Te - Эффективная температура - температура, которую ощущает одетый по сезону человек в тени. Характеристика душности погоды. При расчете учитывается влияние влажности воздуха и скорости ветра на теплоощущения человека.
Tes - Эффективная температура на солнце - температура, которую ощущает человек, с поправкой на солнечный нагрев. Характеристика знойности погоды. Зависит от высоты солнца над горизонтом, облачности и скорости ветра. Ночью, в пасмурную погоду, а также при ветре 12 м/с и более поправка равна нулю.
P - Атмосферное давление - приведенное к уровню моря атмосферное давление.
Po - Атмосферное давление - измеренное на уровне метеостанции атмосферное давление.
Tmin - Минимальная температура - минимум температуры воздуха на высоте 2 м над землей.
Tmax - Максимальная температура - максимум температуры воздуха на высоте 2 м над землей.
R - Количество осадков - Количество выпавших осадков за период времени, мм. При наведении курсора мыши на число - период времени, за который выпало указанное количество осадков.
R24 - Количество осадков - Количество выпавших осадков за 24 часа, мм.
S - Снежный покров - Высота снежного покрова, см. При наведении курсора мыши на число - состояние снежного покрова и степень покрытия местности в баллах.